Hourly Data Report for June 06, 2012

All times are specified in Local Standard Time (LST). Add 1 hour to adjust for Daylight Saving Time where and when it is observed.

VICTORIA HARTLAND CS
BRITISH COLUMBIA

48°32'01.800" N
123°27'32.900" W
154.10 m
1018FJ5

Download Data

Hourly Data (June 2012)
Hourly Data Report for June 6, 2012
Temp Definition
°C
Dew Point Temp Definition
°C
Rel Hum Definition
%
Wind Dir Definition
10's deg

Wind Spd Definition
km/h
Visibility Definition
km
Stn Press Definition
kPa
Hmdx Definition


Wind Chill Definition


Weather Definition


TIME
00:00 8.4 1.4 61 24 11   100.31     LegendNANA
01:00 8.1 1.3 62 29 6   100.32     LegendNANA
02:00 8.1 1.1 61 23 9   100.31     LegendNANA
03:00 8.1 1.1 61 21 9   100.31     LegendNANA
04:00 7.7 0.8 62 23 6   100.26     LegendNANA
05:00 8.0 1.0 61 27 6   100.24     LegendNANA
06:00 9.2 1.8 60 26 6   100.22     LegendNANA
07:00 10.7 1.8 54 21 7   100.26     LegendNANA
08:00 11.1 1.1 50 26 11   100.25     LegendNANA
09:00 11.8 0.1 44 23 11   100.22     LegendNANA
10:00 11.4 3.0 56 17 15   100.18     LegendNANA
11:00 12.2 4.0 57 17 13   100.15     LegendNANA
12:00 12.2 3.4 55 18 13   100.09     LegendNANA
13:00 12.8 2.8 51 16 13   100.07     LegendNANA
14:00 11.8 1.6 50 17 13   100.07     LegendNANA
15:00 12.3 1.4 47 17 13   100.07     LegendNANA
16:00 12.6 2.4 50 17 11   100.07     LegendNANA
17:00 12.3 2.2 50 17 7   100.06     LegendNANA
18:00 12.0 2.6 53 19 4   100.03     LegendNANA
19:00 10.7 5.2 69   0   99.99     LegendNANA
20:00 10.6 4.3 65   0   99.95     LegendNANA
21:00 10.4 3.2 61 34 4   99.90     LegendNANA
22:00 9.5 3.1 64 31 7   99.81     LegendNANA
23:00 9.3 3.5 67 32 9   99.73     LegendNANA

Notes on Data Quality.

Legend

  • E = Estimated
  • M = Missing
  • NA = Not Available
  • ‡ = Partner data that is not subject to review by the National Climate Archives
Date modified: